Regional Weather Roundup
Issued by NWS Albany, NY

Home | Current Version | Previous Version | Text Only | Print | Product List | Glossary On
Versions: 1 2 3 4 5 6 7 8 9 10 11 12 13 14 15 16 17 18 19 20 21 22 23 24 25 26 27 28 29 30 31 32 33 34 35 36 37 38 39 40 41 42 43 44 45 46 47 48 49 50
000
ASUS41 KALY 210710
RWRALY

NEW YORK STATE HOURLY WEATHER ROUNDUP
NATIONAL WEATHER SERVICE ALBANY NY
300 AM EDT TUE OCT 21 2014

NOTE: "FAIR" INDICATES FEW OR NO CLOUDS BELOW 12,000 FEET WITH NO
SIGNIFICANT WEATHER AND/OR NO OBSTRUCTIONS TO VISIBILITY.

NYZ032-033-038>043-046>054-057>066-NYZ062>081-210800-
EAST


CITY           SKY/WX    TMP DP  RH WIND       PRES   REMARKS
ALBANY         LGT RAIN  49  43  80 S3        29.92S
GLENS FALLS    CLOUDY    44  40  85 CALM      29.92S
POUGHKEEPSIE   CLOUDY    49  42  77 CALM      29.93R
NEWBURGH       MOCLDY    52  43  71 CALM      29.93F
MONTGOMERY     CLOUDY    46  41  82 CALM      29.92S
WHITE PLAINS   CLOUDY    49  43  80 CALM      29.93F
ISLIP          MOCLDY    51  45  79 CALM      29.93F
NEW YORK CITY  CLOUDY    57  44  62 S5        29.92F
CENTRAL PARK   MOCLDY    58  43  57 SW6       29.95F
$$

NYZ005>009-017-018-044>046-055-056-210800-
CENTRAL


CITY           SKY/WX    TMP DP  RH WIND       PRES   REMARKS
FULTON         LGT RAIN  49  46  90 VRB3      29.84F
SYRACUSE       DRIZZLE   50  47  88 CALM      29.86S
ROME           LGT RAIN  47  43  86 SE3       29.88F
ELMIRA         CLOUDY    47  46  97 CALM      29.83F
BINGHAMTON     CLOUDY    49  40  71 S6        29.85F
MONTICELLO     MOCLDY    45  43  93 NE5       29.91F
$$

NYZ026>034-041>043-210800-
NORTH


CITY           SKY/WX    TMP DP  RH WIND       PRES   REMARKS
WATERTOWN      CLOUDY    51  43  74 S6        29.83F
FORT DRUM      NOT AVBL
MASSENA        LGT RAIN  44  41  89 E9        29.90S
SARANAC LAKE   CLOUDY    41  37  86 NE5       29.87S
PLATTSBURGH    CLOUDY    43  40  89 CALM      29.92S
$$

NYZ001>004-010>016-019>021-210800-
WEST


CITY           SKY/WX    TMP DP  RH WIND       PRES   REMARKS
NIAGARA FALLS  LGT RAIN  51  50  96 N5        29.77S FOG
BUFFALO        LGT RAIN  50  48  93 S10       29.77F
DUNKIRK        LGT RAIN  51  49  92 SW12G23   29.79S
JAMESTOWN      CLOUDY    46  45  93 SW7       29.80S
WELLSVILLE     LGT RAIN  46  43  89 S8        29.81F
ROCHESTER      LGT RAIN  51  48  89 S6        29.79F
PENN YAN       LGT RAIN  49  45  86 S6        29.82F
$$

             KEY
       WCI = WIND CHILL INDEX
       VSB = VISIBILITY
       HX  = HEAT INDEX
$$


USA.gov is the U.S. government's official web portal to all federal, state and local government web resources and services.